User: anonymous   Login
Location: Oshawa
(43.9000°N, 78.8670°W)
Time: 14:09:12
(UTC-04:00)
Language:

CZ-4C R/B - Orbit

View from above orbital plane
View from above orbital plane
View from above satellite
View from above satellite

Ground track
Ground track

The orbit data is extracted from the following two-line orbital elements,

1 32290U 07055B   18112.23365868  .00002813  00000-0  76609-4 0  9993
2 32290  97.5489 230.8691 0066048 109.1158 251.7252 15.36205247579244
Epoch (UTC): 22 April 2018 05:36:28
Eccentricity: 0.0066048
inclination: 97.5489°
perigee height: 412 km
apogee height: 502 km
right ascension of ascending node: 230.8691°
argument of perigee: 109.1158°
revolutions per day: 15.36205247
mean anomaly at epoch: 251.7252°
orbit number at epoch: 57924

The dashed part of the orbit path shows where the satellite is in the earth's shadow,  

DLR